Location: Agarn
(46.2977°N, 7.6663°E)
Time: 03:11:38
(UTC+00:00)

Daily predictions for brighter satellites

Satellite Brightness Start Highest point End
(mag) Time Altitude Azimuth Time Altitude Azimuth Time Altitude Azimuth
Cosmos 1758 4.0 00:00:03 10° NNW 00:03:41 41° W 00:03:41 41° W
NOSS 2-2 (D) 4.3 00:01:39 10° NW 00:06:43 83° NE 00:11:38 20° SE
Cosmos 1867 3.7 00:05:02 41° SW 00:06:58 74° NW 00:12:29 10° NNE
Cosmos 1461 3.4 00:02:58 10° NW 00:06:31 46° W 00:06:31 46° W
Cosmos 2221 Rocket 3.9 00:06:47 48° WSW 00:07:24 53° WNW 00:11:44 10° N
Cosmos 1674 Rocket 3.4 00:06:55 67° SW 00:07:24 77° W 00:11:45 10° N
Cosmos 2298 Rocket 4.0 00:07:41 51° S 00:08:59 73° ESE 00:14:17 10° NNE
Cosmos 1674 3.4 00:10:51 39° WNW 00:10:53 40° WNW 00:14:27 10° N
USA 306 3.2 00:11:52 51° ESE 00:11:52 51° ESE 00:15:33 10° ENE
Cosmos 1238 Rocket 3.7 00:10:16 10° NNW 00:12:06 29° NW 00:12:06 29° NW
Thor Agena Rocket 4.3 00:08:50 10° NNE 00:13:54 45° E 00:15:34 34° SE
ATLAS CENTAUR R/B 3.3 00:11:10 10° WNW 00:13:59 21° W 00:13:59 21° W
USA 307 3.3 00:15:20 47° ESE 00:15:20 47° ESE 00:18:59 10° ENE
SL-16 R/B 3.9 00:16:08 18° SE 00:18:12 22° E 00:22:24 10° NE
ERBS 3.9 00:22:52 24° E 00:22:52 24° E 00:24:23 10° ENE
Cosmos 1980 3.7 00:20:38 45° S 00:22:20 71° ESE 00:27:58 10° NNE
Cosmos 1378 Rocket 3.8 00:22:19 49° WSW 00:23:01 55° WNW 00:27:23 10° N
Cosmos 2333 Rocket 3.6 00:19:42 16° WSW 00:23:19 31° NW 00:28:19 10° N
ATLAS 5 CENTAUR R/B 2.7 00:11:54 10° NW 00:23:26 63° WSW 00:24:40 46° S
CZ-4C R/B 3.2 00:16:52 10° NW 00:24:03 55° WSW 00:27:53 32° S
Cosmos 1455 Rocket 4.0 00:20:05 10° N 00:24:20 42° ENE 00:26:10 28° SE
USA 215 4.2 00:20:14 10° NE 00:26:25 47° NNW 00:32:37 10° W
Cosmos 332 Rocket 4.2 00:28:23 42° SSE 00:29:30 52° ESE 00:34:10 10° NNE
NOSS 0 Rocket 3.9 00:29:22 38° SW 00:31:57 83° WNW 00:38:15 10° NNE
USA 32 4.0 00:35:15 45° S 00:36:57 87° W 00:42:14 10° N
Meteor 2-10 Rocket 3.7 00:33:06 10° N 00:38:50 83° ENE 00:41:17 35° SSE
Cosmos 1975 Rocket 3.4 00:39:39 42° SSE 00:40:52 58° E 00:45:15 10° NNE
Cosmos 1745 Rocket 4.4 00:36:28 10° NNW 00:42:24 48° W 00:44:35 34° SW
ADEOS Rocket 4.4 00:42:18 18° WSW 00:43:32 19° W 00:47:40 10° NW
Cosmos 839 Rocket 4.2 00:38:01 10° NW 00:44:21 67° WSW 00:49:12 23° SSE
USA 308 2.7 00:44:46 60° SW 00:45:29 81° SE 00:49:41 10° ENE
Cosmos 2219 Rocket 3.8 00:42:57 14° W 00:46:40 27° NW 00:51:22 10° N
Cosmos 1025 Rocket 3.4 00:47:03 38° SSE 00:48:21 55° E 00:52:34 10° NNE
Cosmos 1455 4.0 00:47:12 10° NNE 00:50:24 26° ENE 00:52:37 16° ESE
Cosmos 1269 Rocket 4.4 00:45:56 10° NNW 00:51:12 64° ENE 00:55:07 18° SE
GP-B 3.2 00:52:33 10° N 00:56:58 65° W 00:58:07 46° SW
Meteor 2-5 Rocket 3.9 00:55:38 31° S 00:58:25 69° E 01:04:04 10° NNE
CZ-2D R/B 2.5 00:54:34 10° NNE 00:59:53 58° E 01:02:28 29° S
Lacrosse 5 2.4 00:58:31 36° S 00:59:56 45° SE 01:04:48 10° ENE
Cosmos 1300 3.2 00:57:43 10° NNW 01:01:17 40° W 01:01:27 40° W
USA 267 4.0 01:02:15 28° SW 01:02:41 28° SW 01:08:11 10° WNW
SL-14 R/B 4.3 01:02:27 29° W 01:03:03 30° WNW 01:06:32 10° N
Cosmos 371 Rocket 4.2 01:06:03 27° WSW 01:08:03 39° WNW 01:12:37 10° N
USA 305 3.1 01:07:08 31° W 01:08:59 64° NNW 01:13:09 10° NE
Cosmos 1544 Rocket 3.8 01:06:20 10° N 01:10:46 66° E 01:13:10 26° SSE
USA 229 DEB 4.3 01:04:21 10° NW 01:11:15 42° WSW 01:15:06 26° SSW
USA 229 4.3 01:04:27 10° NW 01:11:21 43° WSW 01:15:15 26° S
BREEZE-M DEB (TANK) 4.4 00:55:42 10° WSW 01:12:17 83° NNW 01:16:34 10° ENE
Cosmos 2237 Rocket 2.7 01:11:28 27° WSW 01:14:22 53° WNW 01:19:58 10° NNE
COSMOS 2428 4.5 01:12:17 11° W 01:16:28 24° NW 01:21:00 10° N
AQUA 4.3 01:14:31 10° NNE 01:19:13 55° E 01:21:49 25° S
Cosmos 304 Rocket 4.3 01:17:17 30° WSW 01:19:17 47° WNW 01:23:59 10° NNE
SL-16 R/B 2.5 01:14:42 16° SSE 01:19:45 87° ENE 01:26:02 10° NNW
Helios 1A 4.2 01:16:57 10° SE 01:20:53 41° ENE 01:24:53 10° N
Lacrosse 5 rocket 1.9 01:21:54 33° SSE 01:22:46 38° SE 01:26:32 10° ENE
SAR-Lupe-2 4.1 01:19:17 10° NNE 01:22:48 50° E 01:24:09 31° SSE
SME Rocket 3.6 01:24:34 35° SW 01:25:37 42° W 01:30:17 10° NNW
Cosmos 1953 4.3 01:24:03 10° NW 01:26:15 14° W 01:26:26 14° W
Cosmos 2074 Rocket 4.0 01:22:41 10° N 01:29:01 89° W 01:33:59 17° S
Resurs 1-4 Rocket 2.1 01:23:48 10° NNE 01:29:05 78° WNW 01:31:56 28° SSW
Cosmos 2297 3.8 01:28:00 10° NNW 01:33:49 85° ENE 01:39:32 10° SSE
Cosmos 1943 Rocket 2.1 01:28:07 10° NNW 01:33:49 77° WSW 01:39:28 10° SSE
Cosmos 1703 4.4 01:35:52 16° SSE 01:38:33 38° E 01:42:13 10° NNE
CRYOSAT 2 4.3 01:38:47 21° S 01:42:08 88° W 01:47:03 10° N
Cosmos 2184 Rocket 4.0 01:37:38 10° NNW 01:43:54 73° W 01:48:45 17° S
Cosmos 2278 Rocket 3.6 01:40:37 10° WNW 01:44:25 19° W 01:45:24 18° WSW
ADEOS II 2.1 01:39:45 10° NNE 01:45:02 79° ESE 01:48:40 21° S
IDEFIX/ARIANE 42P 2.8 01:40:40 10° NNE 01:45:57 68° ESE 01:49:52 18° S
USA 306 3.9 01:47:34 12° W 01:51:10 41° NNW 01:55:09 10° NE
Cosmos 2084 Rocket 3.8 01:49:15 24° WSW 01:51:15 47° NW 01:54:56 10° NNE
Cosmos 292 Rocket 4.1 01:48:10 21° S 01:51:19 63° ESE 01:56:05 10° NNE
USA 307 3.8 01:51:04 13° W 01:54:37 43° NNW 01:58:39 10° NE
ERBS 3.8 01:54:54 14° W 01:56:56 27° NNW 01:59:36 10° NNE
NPP 3.9 01:51:46 10° N 01:57:03 56° WNW 02:00:35 21° SW
Cosmos 2369 Rocket 2.5 01:53:30 10° NNW 01:59:06 69° ENE 02:04:40 10° SE
SL-16 R/B 2.4 01:58:00 21° SW 02:01:48 63° WNW 02:07:28 10° NNE
Cosmos 614 Rocket 3.9 01:57:32 10° NNW 02:02:44 72° WSW 02:07:54 10° SSE
Cosmos 2228 3.2 01:58:21 10° N 02:02:45 74° E 02:07:03 10° SSE
IRS-1D 4.1 01:57:39 10° NNE 02:02:56 58° E 02:07:54 11° S
EO 1 Del DPAF 2.9 01:59:41 10° NNE 02:03:13 83° WNW 02:05:16 23° SSW
Cosmos 2251 Rocket 3.7 01:59:27 10° NNW 02:04:45 75° ENE 02:10:02 10° SSE
Meteor 1-28 Rocket 3.3 02:03:36 20° S 02:05:59 55° W 02:09:40 10° NNW
Cosmos 1656 Rocket 4.0 02:03:05 10° NNW 02:08:30 65° ENE 02:13:52 10° SE
COSMOS 2455 2.9 02:04:48 19° SSW 02:09:19 84° ESE 02:15:24 10° NE
Cosmos 1536 Rocket 3.8 02:08:03 20° SSW 02:10:54 57° WNW 02:15:14 10° N
COSMOS 2441 4.4 02:13:22 10° NNE 02:18:16 81° ESE 02:22:48 12° S
Nadezhda 1 Rocket 4.2 02:15:05 15° SSW 02:20:21 61° WNW 02:26:36 10° N
MSX 3.9 02:17:13 10° NNE 02:23:00 80° WNW 02:28:25 12° SSW
Cosmos 1603 4.3 02:19:55 10° S 02:25:20 52° ESE 02:30:50 10° NE
USA 308 4.3 02:21:35 10° W 02:25:26 34° NNW 02:29:17 10° NE
Cosmos 1455 3.6 02:22:52 10° NW 02:25:45 22° W 02:27:23 16° SW
MOS 1 Rocket 4.1 02:23:22 17° SW 02:25:50 28° W 02:29:35 10° NW
Cosmos 1271 Rocket 3.4 02:26:12 10° NNW 02:29:43 36° W 02:32:45 13° SSW
Cosmos 1606 Rocket 3.5 02:29:30 10° NNW 02:33:55 79° W 02:38:17 10° S
ALOS 3.5 02:32:55 10° NNE 02:37:19 39° E 02:41:40 10° SSE
CZ-2C R/B 3.6 02:34:37 10° NNE 02:39:29 42° E 02:44:12 10° SSE
CZ-2D R/B 3.6 02:35:23 10° N 02:39:30 23° WNW 02:43:35 10° WSW
Lacrosse 5 2.7 02:38:01 10° WSW 02:42:56 47° NNW 02:47:52 10° NE
Helios 1B rocket 2.6 02:40:07 10° NNE 02:44:11 73° ESE 02:48:14 10° S
Cosmos 2366 rocket 4.1 02:40:00 10° N 02:46:12 83° E 02:52:23 10° S
Cosmos 2341 Rocket 4.1 02:40:21 10° NNW 02:46:43 71° W 02:53:03 10° S
Meteor 2-1 Rocket 4.3 02:45:35 10° NNW 02:51:17 63° W 02:56:49 10° S
BREEZE-M DEB (TANK) 2.9 02:47:13 11° SW 02:51:34 46° SSE 02:53:50 10° E
Cosmos 407 Rocket 3.5 02:47:22 10° NNW 02:52:42 76° WSW 02:57:56 10° SSE
SL-8 Rocket 4.0 02:47:08 10° NNW 02:53:28 75° W 02:59:45 10° S
SL-19 R/B 4.5 02:48:24 10° NNE 02:54:34 78° WNW 03:00:23 10° SSW
Cosmos 1371 Rocket 4.4 02:50:24 10° S 02:55:28 62° ESE 03:00:36 10° NNE
Cosmos 1328 3.9 02:52:40 10° SSW 02:56:33 59° W 03:00:31 10° N
Helios 1A 4.5 02:53:28 10° SW 02:56:34 20° W 02:59:42 10° NW
Cosmos 1943 3.3 02:51:04 10° SSW 02:56:46 83° WNW 03:02:30 10° NNE
Cosmos 2237 Rocket 4.4 02:57:20 10° WNW 02:59:50 13° NW 03:02:21 10° N
Genesis I 3.2 02:56:15 10° NW 03:00:19 78° SW 03:04:18 10° SSE
Lacrosse 5 rocket 2.3 02:58:07 10° W 03:01:49 39° NNW 03:05:45 10° NE
Meteor 1-29 4.1 03:00:08 10° NNE 03:03:14 39° E 03:06:18 10° S
Cosmos 1140 Rocket 3.6 02:58:26 10° NNW 03:03:36 59° WSW 03:08:43 10° S
SL-16 R/B 4.1 03:00:21 10° SW 03:04:08 17° W 03:07:56 10° NW
Resurs 1-4 Rocket 4.2 03:05:38 10° NNW 03:08:03 13° NW 03:10:28 10° W
Lacrosse 4 Rocket 3.2 03:05:23 10° S 03:09:02 28° ESE 03:12:40 10° NE
SeaSat 1 3.6 03:04:28 10° NE 03:09:07 40° ESE 03:13:44 10° S
Cosmos 1892 Rocket 3.8 03:05:58 10° SSW 03:10:21 57° WNW 03:14:47 10° N
IRS-1C 4.3 03:05:43 10° NNE 03:11:05 78° ESE 03:16:25 10° S
